• In Belarus
  • List of Countries
  • For 7 days
  • Water Temperature
  • Satellite Maps
  • Weather Map
  • Weather Widgets
  • user-avatar
    Login

    Hourly Weather Laksau

    Today, 21 May, Tuesday

    Time Temperature Precipitation Wind Pressure Humidity
    00:00 +24°C° 0.9 mm 0 mps 700 mmHg 88%
    01:00 +24°C° 0 mm 0 mps 699 mmHg 89%
    02:00 +23°C° 1.6 mm 0 mps 699 mmHg 89%
    03:00 +23°C° 1.6 mm 0 mps 699 mmHg 90%
    04:00 +23°C° 1.6 mm 0 mps 699 mmHg 91%
    05:00 +23°C° 0.6 mm 0 mps 699 mmHg 89%
    06:00 +24°C° 0.6 mm 0 mps 700 mmHg 87%
    07:00 +27°C° 0 mm 1 mps 701 mmHg 85%
    08:00 +26°C° 1.3 mm 0 mps 701 mmHg 78%
    09:00 +28°C° 1.3 mm 0 mps 702 mmHg 72%
    10:00 +29°C° 1.3 mm 0 mps 702 mmHg 66%
    11:00 +30°C° 0.5 mm 0 mps 702 mmHg 61%
    12:00 +31°C° 0.5 mm 0 mps 702 mmHg 57%
    13:00 +32°C° 0 mm 0 mps 702 mmHg 54%
    14:00 +31°C° 0.2 mm 0 mps 701 mmHg 54%
    15:00 +31°C° 0.2 mm 0 mps 701 mmHg 54%
    16:00 +31°C° 0.2 mm 0 mps 701 mmHg 55%
    17:00 +29°C° 0 mm 0 mps 700 mmHg 62%
    18:00 +29°C° 0 mm 1 mps 700 mmHg 70%
    19:00 +27°C° 0 mm 1 mps 700 mmHg 78%
    20:00 +27°C° 0.2 mm 1 mps 700 mmHg 82%
    21:00 +24°C° 0.2 mm 0 mps 700 mmHg 85%
    22:00 +24°C° 0.2 mm 0 mps 700 mmHg 88%
    23:00 +24°C° 0.3 mm 0 mps 700 mmHg 89%

    Tomorrow, 22 May, Wednesday

    Time Temperature Precipitation Wind Pressure Humidity
    00:00 +24°C° 0.3 mm 0 mps 700 mmHg 90%
    01:00 +23°C° 0.3 mm 0 mps 700 mmHg 91%
    02:00 +23°C° 1 mm 0 mps 700 mmHg 90%
    03:00 +23°C° 1 mm 0 mps 700 mmHg 90%
    04:00 +23°C° 1 mm 0 mps 700 mmHg 90%
    05:00 +23°C° 1.4 mm 0 mps 700 mmHg 90%
    06:00 +23°C° 1.4 mm 0 mps 700 mmHg 89%
    07:00 +23°C° 1.4 mm 0 mps 701 mmHg 89%
    08:00 +26°C° 1 mm 1 mps 701 mmHg 89%
    09:00 +26°C° 1 mm 1 mps 701 mmHg 89%
    10:00 +26°C° 1 mm 1 mps 701 mmHg 88%
    11:00 +27°C° 0.3 mm 1 mps 701 mmHg 84%
    12:00 +28°C° 0.3 mm 1 mps 701 mmHg 79%
    13:00 +28°C° 0.3 mm 1 mps 701 mmHg 75%
    14:00 +29°C° 0 mm 1 mps 700 mmHg 70%
    15:00 +29°C° 0 mm 1 mps 700 mmHg 65%
    16:00 +30°C° 0 mm 1 mps 699 mmHg 60%
    17:00 +26°C° 0 mm 0 mps 699 mmHg 66%
    18:00 +25°C° 0 mm 0 mps 699 mmHg 71%
    19:00 +23°C° 0 mm 0 mps 699 mmHg 77%
    20:00 +23°C° 0 mm 0 mps 699 mmHg 79%
    21:00 +23°C° 0 mm 0 mps 700 mmHg 80%
    22:00 +22°C° 0 mm 0 mps 700 mmHg 82%
    23:00 +22°C° 0.3 mm 0 mps 700 mmHg 84%

    Day after tomorrow, 23 May, Thursday

    Time Temperature Precipitation Wind Pressure Humidity
    00:00 +22°C° 0.3 mm 0 mps 700 mmHg 85%
    01:00 +22°C° 0.3 mm 0 mps 700 mmHg 86%
    02:00 +21°C° 1.2 mm 0 mps 700 mmHg 88%
    03:00 +23°C° 1.2 mm 1 mps 699 mmHg 90%
    04:00 +23°C° 1.2 mm 1 mps 699 mmHg 92%
    05:00 +23°C° 0.9 mm 1 mps 699 mmHg 91%
    06:00 +22°C° 0.9 mm 0 mps 700 mmHg 91%
    07:00 +22°C° 0.9 mm 0 mps 700 mmHg 90%
    08:00 +23°C° 0.5 mm 0 mps 701 mmHg 87%
    09:00 +24°C° 0.5 mm 0 mps 701 mmHg 85%
    10:00 +25°C° 0.5 mm 0 mps 702 mmHg 82%
    11:00 +29°C° 0.4 mm 1 mps 701 mmHg 75%
    12:00 +30°C° 0.4 mm 1 mps 701 mmHg 68%
    13:00 +32°C° 0.4 mm 1 mps 700 mmHg 60%
    14:00 +31°C° 0.8 mm 1 mps 700 mmHg 65%
    15:00 +30°C° 0.8 mm 1 mps 699 mmHg 69%
    16:00 +29°C° 0.8 mm 1 mps 699 mmHg 74%
    17:00 +28°C° 0.8 mm 1 mps 699 mmHg 80%
    18:00 +26°C° 0.8 mm 1 mps 699 mmHg 86%
    19:00 +23°C° 0.8 mm 0 mps 699 mmHg 93%
    20:00 +23°C° 0.2 mm 0 mps 700 mmHg 93%
    21:00 +23°C° 0.2 mm 0 mps 700 mmHg 93%
    22:00 +22°C° 0.2 mm 0 mps 700 mmHg 94%
    23:00 +22°C° 0.1 mm 0 mps 700 mmHg 94%

    24 May, Friday

    Time Temperature Precipitation Wind Pressure Humidity
    00:00 +22°C° 0.1 mm 0 mps 700 mmHg 95%
    01:00 +21°C° 0.1 mm 0 mps 699 mmHg 95%
    02:00 +21°C° 0.2 mm 0 mps 699 mmHg 96%
    03:00 +21°C° 0.2 mm 0 mps 699 mmHg 96%
    04:00 +23°C° 0.2 mm 1 mps 699 mmHg 96%
    05:00 +24°C° 0.7 mm 1 mps 699 mmHg 94%
    06:00 +24°C° 0.7 mm 1 mps 700 mmHg 93%
    07:00 +25°C° 0.7 mm 1 mps 700 mmHg 91%
    08:00 +25°C° 0.3 mm 1 mps 701 mmHg 88%
    09:00 +26°C° 0.3 mm 1 mps 701 mmHg 84%
    10:00 +27°C° 0.3 mm 1 mps 701 mmHg 80%
    11:00 +27°C° 0.3 mm 1 mps 701 mmHg 80%
    12:00 +27°C° 0.3 mm 1 mps 700 mmHg 79%
    13:00 +27°C° 0.3 mm 1 mps 699 mmHg 79%
    14:00 +27°C° 0.1 mm 1 mps 699 mmHg 77%
    15:00 +28°C° 0.1 mm 1 mps 698 mmHg 76%
    16:00 +28°C° 0.1 mm 1 mps 698 mmHg 75%
    17:00 +27°C° 0.8 mm 1 mps 698 mmHg 80%
    18:00 +26°C° 0.8 mm 1 mps 698 mmHg 86%
    19:00 +25°C° 0.8 mm 1 mps 698 mmHg 92%
    20:00 +25°C° 1 mm 1 mps 698 mmHg 93%
    21:00 +24°C° 1 mm 1 mps 699 mmHg 94%
    22:00 +24°C° 1 mm 1 mps 699 mmHg 95%
    23:00 +24°C° 1.1 mm 1 mps 699 mmHg 96%

    25 May, Saturday

    Time Temperature Precipitation Wind Pressure Humidity
    00:00 +23°C° 1.1 mm 1 mps 698 mmHg 96%
    01:00 +23°C° 1.1 mm 1 mps 698 mmHg 96%
    02:00 +23°C° 1 mm 1 mps 697 mmHg 97%
    03:00 +23°C° 1 mm 1 mps 697 mmHg 98%
    04:00 +23°C° 1 mm 1 mps 697 mmHg 98%
    05:00 +23°C° 2.5 mm 1 mps 698 mmHg 98%
    06:00 +24°C° 2.5 mm 1 mps 698 mmHg 97%
    07:00 +24°C° 2.5 mm 1 mps 699 mmHg 96%
    08:00 +25°C° 1.3 mm 1 mps 699 mmHg 92%
    09:00 +27°C° 1.3 mm 1 mps 699 mmHg 87%
    10:00 +28°C° 1.3 mm 1 mps 700 mmHg 82%
    11:00 +29°C° 0.7 mm 1 mps 699 mmHg 78%
    12:00 +29°C° 0.7 mm 1 mps 699 mmHg 74%
    13:00 +30°C° 0.7 mm 1 mps 698 mmHg 70%
    14:00 +30°C° 0.1 mm 1 mps 698 mmHg 69%
    15:00 +30°C° 0.1 mm 1 mps 697 mmHg 67%
    16:00 +30°C° 0.1 mm 1 mps 697 mmHg 66%
    17:00 +28°C° 0 mm 1 mps 697 mmHg 73%
    18:00 +27°C° 0 mm 1 mps 697 mmHg 80%
    19:00 +26°C° 0 mm 1 mps 697 mmHg 87%
    20:00 +25°C° 0.1 mm 1 mps 697 mmHg 89%
    21:00 +25°C° 0.1 mm 1 mps 697 mmHg 91%
    22:00 +24°C° 0.1 mm 1 mps 698 mmHg 93%
    23:00 +24°C° 0.3 mm 1 mps 697 mmHg 93%

    26 May, Sunday

    Time Temperature Precipitation Wind Pressure Humidity
    00:00 +24°C° 0.3 mm 1 mps 697 mmHg 93%
    01:00 +24°C° 0.3 mm 1 mps 696 mmHg 93%
    02:00 +23°C° 0 mm 1 mps 696 mmHg 93%
    03:00 +23°C° 0 mm 1 mps 696 mmHg 93%
    04:00 +23°C° 0 mm 1 mps 696 mmHg 94%
    05:00 +24°C° 0.8 mm 1 mps 697 mmHg 91%
    06:00 +25°C° 0.8 mm 1 mps 698 mmHg 89%
    07:00 +25°C° 0.8 mm 1 mps 698 mmHg 86%
    08:00 +28°C° 0.3 mm 1 mps 698 mmHg 78%
    09:00 +30°C° 0.3 mm 1 mps 699 mmHg 70%
    10:00 +32°C° 0.3 mm 1 mps 699 mmHg 61%
    11:00 +32°C° 0.6 mm 2 mps 699 mmHg 61%
    12:00 +34°C° 0.6 mm 2 mps 698 mmHg 60%
    13:00 +34°C° 0.6 mm 2 mps 698 mmHg 59%
    14:00 +32°C° 2.5 mm 1 mps 697 mmHg 67%
    15:00 +31°C° 2.5 mm 1 mps 697 mmHg 74%
    16:00 +29°C° 2.5 mm 1 mps 696 mmHg 82%
    17:00 +28°C° 1 mm 1 mps 696 mmHg 86%
    18:00 +27°C° 1 mm 1 mps 697 mmHg 91%
    19:00 +26°C° 1 mm 1 mps 697 mmHg 95%
    20:00 +25°C° 0.9 mm 1 mps 697 mmHg 95%
    21:00 +25°C° 0.9 mm 1 mps 697 mmHg 95%
    22:00 +25°C° 0.9 mm 1 mps 698 mmHg 96%
    23:00 +25°C° 3.5 mm 1 mps 697 mmHg 96%
    Show more